Weather History for Nenana, AK

Change the Weather History Date:

Thursday, March 27, 2014

  Actual Average Record
Temperature  
Mean Temperature 29 °F -  
Max Temperature 46 °F 29 °F 55 °F (1993)
Min Temperature 12 °F 1 °F -27 °F (2013)
Degree Days  
Heating Degree Days 36    
Moisture  
Dew Point 6 °F    
Average Humidity 47    
Maximum Humidity 80    
Minimum Humidity 24    
Precipitation  
Precipitation 0.00 in - - ()
Sea Level Pressure  
Sea Level Pressure 29.88 in    
Wind  
Wind Speed 3 mph (East)    
Max Wind Speed 10 mph    
Max Gust Speed -    
Visibility 10 miles    
Events      
Averages and records for this station are not official NWS values.
T = Trace of Precipitation, MM = Missing Value Source: NWS Daily Summary

Daily Weather History Graph

Daily Weather History Graph

Search for Another Location

Airport:

Trip Planner

Search our weather history database for the weather conditions in past years. The results will help you decide how hot, cold, wet, or windy it might be!

Date:

Astronomy

Mar. 27, 2014 Rise Set
Actual Time 7:30 AM AKDT 8:34 PM AKDT
Civil Twilight 6:41 AM AKDT 9:23 PM AKDT
Nautical Twilight 5:38 AM AKDT 10:27 PM AKDT
Astronomical Twilight 4:22 AM AKDT 11:45 PM AKDT
Moon 6:34 AM AKDT (3/27) 4:35 PM AKDT (3/27)
Length of Visible Light 14h 42m
Length of Day
13h 03m
Waning Crescent, 12% of the Moon is Illuminated
Mar 27
Waning Crescent
Mar 30
New
Apr 7
First Quarter
Apr 14
Full
Apr 21
Last Quarter

Hourly Weather History & Observations

Time (AKDT) Temp. Windchill Dew Point Humidity Pressure Visibility Wind Dir Wind Speed Gust Speed Precip Events Conditions
12:53 AM 30.0 °F 23.2 °F 3.0 °F 32% 29.84 in 10.0 mi ENE 6.9 mph - N/A   Clear
1:53 AM 24.1 °F 18.2 °F 3.0 °F 40% 29.86 in 10.0 mi SE 4.6 mph - N/A   Clear
2:53 AM 17.1 °F - 6.1 °F 62% 29.87 in 10.0 mi Calm Calm - N/A   Clear
3:53 AM 12.0 °F 5.9 °F 5.0 °F 73% 29.88 in 10.0 mi West 3.5 mph - N/A   Clear
4:53 AM 10.0 °F - 3.9 °F 76% 29.88 in 10.0 mi Calm Calm - N/A   Clear
5:53 AM 7.0 °F - 1.9 °F 80% 29.89 in 10.0 mi Calm Calm - N/A   Clear
6:53 AM 5.0 °F - -0.9 °F 76% 29.90 in 10.0 mi Calm Calm - N/A   Clear
7:53 AM 5.0 °F - -0.0 °F 80% 29.90 in 10.0 mi Calm Calm - N/A   Clear
8:53 AM 9.0 °F - 1.9 °F 73% 29.92 in 10.0 mi Calm Calm - N/A   Clear
9:53 AM 12.9 °F 3.8 °F 1.0 °F 59% 29.93 in 10.0 mi East 5.8 mph - 0.00 in   Clear
10:53 AM 19.9 °F 13.4 °F 3.0 °F 48% 29.93 in 10.0 mi East 4.6 mph - 0.00 in   Clear
11:53 AM 28.0 °F - 7.0 °F 41% 29.92 in 10.0 mi Calm Calm - N/A   Clear
12:53 PM 30.9 °F 26.2 °F 3.9 °F 32% 29.91 in 10.0 mi East 4.6 mph - N/A   Clear
1:53 PM 32.0 °F 27.5 °F 3.9 °F 31% 29.92 in 10.0 mi ESE 4.6 mph - N/A   Clear
2:53 PM 34.0 °F 26.0 °F 3.9 °F 28% 29.91 in 10.0 mi East 10.4 mph - N/A   Clear
3:53 PM 34.0 °F 27.2 °F 5.0 °F 30% 29.91 in 10.0 mi ESE 8.1 mph - N/A   Clear
4:53 PM 36.0 °F 30.3 °F 6.1 °F 29% 29.90 in 10.0 mi East 6.9 mph - N/A   Clear
5:53 PM 36.0 °F 33.3 °F 3.0 °F 25% 29.90 in 10.0 mi ESE 3.5 mph - N/A   Clear
6:53 PM 37.0 °F - 3.0 °F 24% 29.90 in 10.0 mi Calm Calm - N/A   Clear
7:53 PM 35.1 °F 30.1 °F 6.1 °F 30% 29.90 in 10.0 mi North 5.8 mph - N/A   Clear
8:53 PM 32.0 °F - 6.1 °F 34% 29.90 in 10.0 mi Calm Calm - N/A   Clear
9:53 PM 28.0 °F - 7.0 °F 41% 29.90 in 10.0 mi Calm Calm - N/A   Clear
10:53 PM 21.9 °F - 8.1 °F 55% 29.90 in 10.0 mi Calm Calm - N/A   Clear
11:53 PM 16.0 °F - 7.0 °F 68% 29.90 in 10.0 mi Calm Calm - N/A   Clear